Bolton Field, OH

11:01 PM EDT on June 25, 2017 (GMT -0400)
Bolton

Weather History for KTZR - October, 2013

Change the Weather History Date:

Thursday, October 17, 2013

  Actual Average Record
Temperature  
Mean Temperature 44 °F -  
Max Temperature 51 °F 62 °F 82 °F (2016)
Min Temperature 38 °F 44 °F 30 °F (2015)
Degree Days  
Heating Degree Days 20    
Moisture  
Dew Point 43 °F    
Average Humidity 92    
Maximum Humidity 100    
Minimum Humidity 81    
Precipitation  
Precipitation 0.00 in - - ()
Sea Level Pressure  
Sea Level Pressure 29.94 in    
Wind  
Wind Speed 3 mph (WSW)    
Max Wind Speed 10 mph    
Max Gust Speed -    
Visibility 7 miles    
Events Rain    
Averages and records for this station are not official NWS values.
T = Trace of Precipitation, MM = Missing Value Source: NWS Daily Summary

Daily Weather History Graph

Daily Weather History Graph

Search for Another Location

Airport or City:

Trip Planner

Search our weather history database for the weather conditions in past years. The results will help you decide how hot, cold, wet, or windy it might be!

Date:

Astronomy

Oct. 17, 2013 Rise Set
Actual Time 7:45 AM EDT 6:49 PM EDT
Civil Twilight 7:17 AM EDT 7:17 PM EDT
Nautical Twilight 6:46 AM EDT 7:48 PM EDT
Astronomical Twilight 6:15 AM EDT 8:19 PM EDT
Moon 6:03 PM EDT (10/17) 6:16 AM EDT (10/17)
Length of Visible Light 11h 59m
Length of Day
11h 04m
Waxing Gibbous, 98% of the Moon is Illuminated
Oct 17
Waxing Gibbous
Oct 18
Full
Oct 26
Last Quarter
Nov 3
New
Nov 10
First Quarter

Hourly Weather History & Observations

Time (EDT) Temp. Windchill Dew Point Humidity Pressure Visibility Wind Dir Wind Speed Gust Speed Precip Events Conditions
12:15 AM 48.7 °F - 44.8 °F 86% 29.96 in 10.0 mi NW 5.8 mph - N/A   Clear
12:35 AM 48.0 °F - 44.4 °F 87% 29.96 in 10.0 mi NW 4.6 mph - N/A   Clear
12:55 AM 47.1 °F - 44.2 °F 90% 29.96 in 10.0 mi Calm Calm - N/A   Clear
1:15 AM 46.2 °F - 44.2 °F 93% 29.96 in 10.0 mi Calm Calm - N/A   Clear
1:35 AM 44.1 °F - 43.0 °F 96% 29.96 in 10.0 mi Calm Calm - N/A   Clear
1:55 AM 43.2 °F - 42.8 °F 99% 29.96 in 10.0 mi Calm Calm - N/A   Clear
2:15 AM 43.2 °F - 43.0 °F 99% 29.96 in 10.0 mi Calm Calm - N/A   Clear
2:35 AM 42.1 °F - 42.1 °F 100% 29.96 in 5.0 mi Calm Calm - N/A   Clear
2:55 AM 42.3 °F - 42.3 °F 100% 29.96 in 5.0 mi Calm Calm - N/A   Clear
3:15 AM 41.5 °F - 41.5 °F 100% 29.96 in 7.0 mi Calm Calm - N/A   Clear
3:35 AM 41.4 °F - 41.4 °F 100% 29.95 in 4.0 mi Calm Calm - N/A   Clear
3:55 AM 41.0 °F - 41.0 °F 100% 29.95 in 4.0 mi Calm Calm - N/A   Clear
4:15 AM 40.5 °F - 40.5 °F 100% 29.95 in 2.5 mi Calm Calm - N/A   Clear
4:35 AM 40.1 °F - 40.1 °F 100% 29.94 in 3.0 mi Calm Calm - N/A   Clear
4:55 AM 40.1 °F - 40.1 °F 100% 29.94 in 3.0 mi Calm Calm - N/A   Clear
5:15 AM 39.6 °F - 39.6 °F 100% 29.94 in 5.0 mi Calm Calm - N/A   Clear
5:35 AM 39.6 °F - 39.6 °F 100% 29.94 in 4.0 mi North - - N/A   Clear
5:55 AM 39.6 °F - 39.6 °F 100% 29.94 in 7.0 mi Calm Calm - N/A   Clear
6:15 AM 39.6 °F - 39.6 °F 100% 29.93 in 5.0 mi Calm Calm - N/A   Clear
6:35 AM 39.0 °F - 39.0 °F 100% 29.93 in 5.0 mi Calm Calm - N/A   Clear
6:55 AM 38.5 °F - 38.5 °F 100% 29.94 in 4.0 mi North - - N/A   Clear
7:15 AM 38.7 °F - 38.7 °F 100% 29.94 in 2.0 mi North - - N/A   Clear
7:22 AM 39.2 °F - 39.2 °F 100% 29.94 in 5.0 mi Calm Calm - N/A   Clear
7:50 AM 39.2 °F - 39.2 °F 100% 29.93 in 5.0 mi Calm Calm - N/A   Clear
8:52 AM 41.0 °F - 41.0 °F 100% 29.92 in 7.0 mi Calm Calm - N/A   Mostly Cloudy
9:50 AM 46.4 °F - 46.4 °F 100% 29.92 in 7.0 mi Calm Calm - N/A   Mostly Cloudy
10:52 AM 50.0 °F - 46.4 °F 87% 29.91 in 7.0 mi WNW 4.6 mph - N/A   Overcast
11:48 AM 51.8 °F - 46.4 °F 82% 29.90 in 10.0 mi West 5.8 mph - N/A   Overcast
12:45 PM 51.8 °F - 46.4 °F 82% 29.92 in 5.0 mi West 10.4 mph - N/A Rain Light Rain
1:20 PM 50.0 °F - 46.4 °F 87% 29.87 in 2.0 mi Calm Calm - N/A Rain Rain
1:46 PM 50.0 °F - 48.2 °F 94% 29.86 in 7.0 mi Calm Calm - N/A Rain Light Rain
2:50 PM 51.8 °F - 48.2 °F 88% 29.84 in 10.0 mi West 5.8 mph - N/A Rain Light Rain
7:35 PM 51.1 °F - 45.5 °F 81% 29.91 in 10.0 mi WSW 8.1 mph - N/A   Overcast
7:55 PM 50.9 °F - 45.7 °F 82% 29.92 in 10.0 mi WSW 5.8 mph - N/A   Overcast
8:15 PM 50.9 °F - 45.5 °F 82% 29.92 in 10.0 mi WSW 8.1 mph - N/A   Overcast
8:35 PM 50.9 °F - 45.9 °F 83% 29.94 in 10.0 mi WSW 4.6 mph - N/A   Overcast
8:55 PM 50.7 °F - 45.9 °F 83% 29.94 in 10.0 mi WSW 5.8 mph - N/A   Overcast
9:15 PM 50.9 °F - 45.1 °F 81% 29.95 in 10.0 mi WSW 9.2 mph - N/A   Overcast
9:35 PM 50.7 °F - 45.5 °F 82% 29.95 in 10.0 mi WSW 6.9 mph - N/A   Overcast
9:55 PM 50.5 °F - 45.5 °F 83% 29.96 in 10.0 mi West 8.1 mph - N/A   Overcast
10:15 PM 50.0 °F - 45.0 °F 83% 29.96 in 10.0 mi West 5.8 mph - N/A   Overcast
10:35 PM 47.8 °F - 44.2 °F 87% 29.96 in 10.0 mi WSW 5.8 mph - N/A   Scattered Clouds
10:55 PM 48.0 °F - 43.7 °F 85% 29.97 in 10.0 mi WSW 6.9 mph - N/A   Clear
11:15 PM 46.4 °F 44.3 °F 42.4 °F 86% 29.96 in 10.0 mi WSW 4.6 mph - N/A   Clear
11:35 PM 45.7 °F 43.4 °F 42.3 °F 88% 29.97 in 10.0 mi SW 4.6 mph - N/A   Clear
11:55 PM 44.2 °F 41.0 °F 41.9 °F 91% 29.97 in 10.0 mi SSW 5.8 mph - N/A   Clear